Location: Sihaung
(22.8641°N, 94.0549°E)
Time: 13:51:30
(UTC+00:00)

USA 238 - Pass Details

Date: 03 March 2021
Orbit: 994 x 1218 km, 63.4° (Epoch: 01 April)

Event Time Altitude Azimuth Distance (km) Brightness Sun altitude
Rises 14:09:25 0° 217° (SW) 3,695 6.9 -33.3°
Reaches altitude 10° 14:12:02 10° 221° (SW) 2,749 6.2 -33.9°
Enters shadow 14:18:07 56° 291° (WNW) 1,184 4.0 -35.3°
